contact:dominique.lefevre@mio.osupytheas.fr, maurice.libes@osupytheas.fr, didier.mallarino@osupytheas.fr
Project:EMSO http://www.emso-fr.org/EMSO-France
Depth: 2436.0 m
Title:EMSO Ligure Ouest : Data MII capteur AQUADOPP
Date,Latitude,Longitude,X_East,Y_North,Z_Up,Amplitude_X,Amplitude_Y,Amplitude_Z,Batterie,SoundSpeed,Heading,Pitch,Roll,Pressure,TIS,Speed,Direction
, degrees North, degrees East, m.s-1, m.s-1,m.s-1, 1, 1, 1, Volt, m.s-1, degree, degree, degree, dbar, degree_C, m.s-1, degree
2019-12-18T00:04:03,42.805,6.029,-0.045,0.0,-0.046,110.0,113.0,107.0,13.4,1505.3,325.7,-0.8,1.8,2470.341,13.31,0.045,270.0
2019-12-18T00:07:03,42.805,6.029,-0.049,0.011,-0.012,110.0,112.0,106.0,13.4,1505.3,328.2,-0.7,1.8,2470.288,13.31,0.05,282.7
2019-12-18T00:10:03,42.805,6.029,-0.074,0.024,-0.018,111.0,112.0,105.0,13.4,1505.3,326.8,-0.7,1.8,2470.27,13.32,0.077,288.0
2019-12-18T00:13:03,42.805,6.029,-0.043,0.022,-0.032,108.0,113.0,105.0,13.4,1505.3,328.3,-0.7,1.9,2470.255,13.32,0.048,297.1
2019-12-18T00:16:03,42.805,6.029,-0.058,0.018,-0.039,109.0,111.0,106.0,13.4,1505.3,326.4,-0.7,1.8,2470.274,13.32,0.06,287.2
2019-12-18T00:19:03,42.805,6.029,-0.045,0.001,-0.027,109.0,111.0,105.0,13.4,1505.3,325.9,-0.7,1.8,2470.284,13.33,0.045,271.3
2019-12-18T00:22:03,42.805,6.029,-0.044,0.006,0.001,109.0,111.0,105.0,13.3,1505.3,323.2,-0.7,1.8,2470.275,13.33,0.044,277.8
2019-12-18T00:25:03,42.805,6.029,-0.05,0.016,-0.03,109.0,111.0,105.0,13.4,1505.3,324.0,-0.7,1.8,2470.254,13.33,0.052,287.7
2019-12-18T00:28:03,42.805,6.029,-0.041,0.01,-0.012,109.0,111.0,104.0,13.4,1505.3,326.7,-0.7,1.9,2470.271,13.33,0.042,283.7
2019-12-18T00:31:03,42.805,6.029,-0.051,0.003,-0.023,110.0,111.0,105.0,13.4,1505.3,326.0,-0.7,1.8,2470.258,13.33,0.051,273.4
2019-12-18T00:34:03,42.805,6.029,-0.035,0.031,-0.019,110.0,112.0,105.0,13.3,1505.3,325.0,-0.7,1.9,2470.253,13.33,0.046,311.5
2019-12-18T00:37:03,42.805,6.029,-0.046,0.009,-0.009,109.0,110.0,106.0,13.3,1505.3,327.2,-0.7,1.8,2470.242,13.33,0.046,281.1
2019-12-18T00:40:03,42.805,6.029,-0.034,0.019,-0.022,108.0,112.0,105.0,13.4,1505.3,323.6,-0.7,1.8,2470.254,13.33,0.038,299.2
2019-12-18T00:43:03,42.805,6.029,-0.065,0.042,-0.016,108.0,111.0,105.0,13.4,1505.3,325.3,-0.7,1.8,2470.265,13.33,0.077,302.9
2019-12-18T00:46:03,42.805,6.029,-0.044,0.032,-0.007,110.0,112.0,105.0,13.3,1505.3,327.3,-0.7,1.8,2470.249,13.33,0.054,306.0
2019-12-18T00:49:03,42.805,6.029,-0.037,0.028,-0.037,108.0,112.0,103.0,13.3,1505.3,325.0,-0.7,1.9,2470.265,13.33,0.046,307.1
2019-12-18T00:52:03,42.805,6.029,-0.064,0.023,-0.041,109.0,112.0,105.0,13.4,1505.3,325.1,-0.7,1.8,2470.246,13.33,0.068,289.8
2019-12-18T00:55:03,42.805,6.029,-0.027,0.019,-0.003,109.0,113.0,106.0,13.4,1505.3,324.2,-0.7,1.8,2470.251,13.33,0.033,305.1
2019-12-18T00:58:03,42.805,6.029,-0.046,0.024,-0.013,109.0,112.0,104.0,13.3,1505.3,325.3,-0.7,1.9,2470.308,13.33,0.051,297.6
2019-12-18T01:04:03,42.805,6.029,-0.043,0.017,0.033,109.0,113.0,106.0,13.4,1505.3,327.4,-0.7,1.8,2470.248,13.31,0.046,291.6
2019-12-18T01:07:03,42.805,6.029,-0.038,0.016,-0.001,109.0,111.0,104.0,13.4,1505.3,326.4,-0.7,1.8,2470.299,13.31,0.041,292.8
2019-12-18T01:10:03,42.805,6.029,-0.059,0.027,-0.033,108.0,111.0,104.0,13.3,1505.3,326.5,-0.7,1.8,2470.284,13.32,0.064,294.6
2019-12-18T01:13:03,42.805,6.029,-0.018,0.028,-0.001,108.0,112.0,104.0,13.4,1505.3,326.4,-0.7,1.8,2470.262,13.32,0.033,327.3
2019-12-18T01:16:03,42.805,6.029,-0.042,-0.007,-0.029,107.0,111.0,105.0,13.3,1505.3,323.5,-0.7,1.8,2470.252,13.32,0.042,260.5
2019-12-18T01:19:03,42.805,6.029,-0.068,0.006,-0.043,107.0,110.0,104.0,13.4,1505.3,327.4,-0.7,1.8,2470.268,13.32,0.068,275.0
2019-12-18T01:22:03,42.805,6.029,-0.054,0.038,-0.002,107.0,111.0,104.0,13.4,1505.3,327.4,-0.7,1.8,2470.245,13.33,0.066,305.1
2019-12-18T01:25:03,42.805,6.029,-0.067,0.017,-0.055,107.0,112.0,104.0,13.4,1505.3,327.0,-0.7,1.9,2470.239,13.33,0.069,284.2
2019-12-18T01:28:03,42.805,6.029,-0.049,0.037,-0.028,110.0,111.0,104.0,13.3,1505.3,324.6,-0.7,1.8,2470.233,13.33,0.061,307.1
2019-12-18T01:31:03,42.805,6.029,-0.066,0.018,-0.017,108.0,111.0,105.0,13.4,1505.3,324.7,-0.7,1.8,2470.275,13.33,0.068,285.3
2019-12-18T01:34:03,42.805,6.029,-0.057,0.032,0.008,107.0,112.0,104.0,13.4,1505.3,322.8,-0.8,1.8,2470.247,13.33,0.065,299.3
2019-12-18T01:37:03,42.805,6.029,-0.054,0.038,-0.017,108.0,112.0,104.0,13.4,1505.3,324.0,-0.8,1.8,2470.28,13.33,0.066,305.1
2019-12-18T01:40:03,42.805,6.029,-0.076,0.038,-0.015,108.0,111.0,103.0,13.4,1505.3,323.6,-0.7,1.8,2470.236,13.33,0.084,296.6
2019-12-18T01:43:03,42.805,6.029,-0.047,0.022,-0.017,108.0,111.0,104.0,13.4,1505.3,327.3,-0.7,1.8,2470.236,13.33,0.051,295.1
2019-12-18T01:46:03,42.805,6.029,-0.075,0.05,-0.001,108.0,111.0,104.0,13.4,1505.3,327.6,-0.7,1.8,2470.245,13.33,0.09,303.7
2019-12-18T01:49:03,42.805,6.029,-0.058,0.024,-0.002,109.0,113.0,103.0,13.4,1505.3,327.8,-0.7,1.8,2470.264,13.33,0.062,292.5
2019-12-18T01:52:03,42.805,6.029,-0.057,0.043,-0.007,108.0,113.0,105.0,13.4,1505.3,327.1,-0.7,1.9,2470.252,13.33,0.071,307.0
2019-12-18T01:55:03,42.805,6.029,-0.059,0.036,0.0,109.0,114.0,104.0,13.3,1505.3,324.5,-0.7,1.8,2470.249,13.33,0.069,301.4
2019-12-18T01:58:03,42.805,6.029,-0.054,0.028,-0.009,109.0,111.0,104.0,13.4,1505.3,325.9,-0.7,1.8,2470.249,13.33,0.06,297.4
2019-12-18T02:04:03,42.805,6.029,-0.056,0.048,-0.025,109.0,113.0,104.0,13.4,1505.3,327.1,-0.7,1.9,2470.266,13.31,0.073,310.6
2019-12-18T02:07:03,42.805,6.029,-0.057,0.05,-0.007,109.0,112.0,103.0,13.3,1505.3,327.9,-0.7,1.9,2470.279,13.31,0.075,311.3
2019-12-18T02:10:03,42.805,6.029,-0.05,0.04,-0.027,109.0,112.0,105.0,13.4,1505.3,327.6,-0.7,1.9,2470.241,13.32,0.064,308.7
2019-12-18T02:13:03,42.805,6.029,-0.058,0.03,-0.03,108.0,111.0,104.0,13.4,1505.3,324.3,-0.7,1.8,2470.221,13.32,0.065,297.4
2019-12-18T02:16:03,42.805,6.029,-0.057,0.028,-0.042,109.0,113.0,105.0,13.3,1505.3,324.1,-0.6,1.8,2470.253,13.32,0.063,296.2
2019-12-18T02:19:03,42.805,6.029,-0.06,0.014,-0.04,109.0,113.0,105.0,13.4,1505.3,328.3,-0.7,1.8,2470.26,13.32,0.061,283.1
2019-12-18T02:22:03,42.805,6.029,-0.067,0.022,-0.009,108.0,112.0,105.0,13.4,1505.3,324.3,-0.7,1.8,2470.222,13.32,0.07,288.2
2019-12-18T02:25:03,42.805,6.029,-0.056,0.033,-0.007,110.0,112.0,104.0,13.4,1505.3,327.4,-0.7,1.8,2470.227,13.32,0.064,300.5
2019-12-18T02:28:03,42.805,6.029,-0.045,0.04,-0.039,108.0,111.0,103.0,13.3,1505.3,324.0,-0.7,1.8,2470.244,13.33,0.06,311.6
2019-12-18T02:31:03,42.805,6.029,-0.05,0.043,-0.022,108.0,112.0,104.0,13.4,1505.3,325.6,-0.7,1.8,2470.253,13.33,0.065,310.7
2019-12-18T02:34:03,42.805,6.029,-0.065,0.036,0.007,108.0,112.0,104.0,13.3,1505.3,325.1,-0.7,1.8,2470.273,13.32,0.074,299.0
2019-12-18T02:37:03,42.805,6.029,-0.048,0.043,-0.02,109.0,111.0,104.0,13.3,1505.3,327.4,-0.7,1.8,2470.226,13.33,0.064,311.9
2019-12-18T02:40:03,42.805,6.029,-0.077,0.05,-0.021,108.0,112.0,104.0,13.3,1505.3,323.3,-0.7,1.8,2470.229,13.33,0.091,303.0
2019-12-18T02:43:03,42.805,6.029,-0.057,0.038,-0.012,108.0,113.0,105.0,13.4,1505.3,323.5,-0.7,1.8,2470.186,13.33,0.068,303.7
2019-12-18T02:46:03,42.805,6.029,-0.052,0.028,-0.023,109.0,113.0,106.0,13.4,1505.3,326.4,-0.7,1.8,2470.207,13.33,0.059,298.3
2019-12-18T02:49:03,42.805,6.029,-0.071,0.044,-0.013,108.0,115.0,105.0,13.4,1505.3,324.6,-0.7,1.8,2470.169,13.33,0.083,301.8
2019-12-18T02:52:03,42.805,6.029,-0.03,0.04,-0.044,109.0,112.0,105.0,13.4,1505.3,327.4,-0.7,1.8,2470.199,13.32,0.05,323.1
2019-12-18T02:55:03,42.805,6.029,-0.056,0.048,-0.018,109.0,114.0,104.0,13.4,1505.3,324.5,-0.8,1.8,2470.19,13.32,0.073,310.6
2019-12-18T02:58:03,42.805,6.029,-0.049,0.047,-0.008,109.0,116.0,104.0,13.4,1505.3,323.8,-0.7,1.9,2470.22,13.33,0.067,313.8
2019-12-18T03:04:03,42.805,6.029,-0.066,0.043,-0.025,108.0,114.0,104.0,13.4,1505.3,325.6,-0.8,1.8,2470.209,13.31,0.078,303.1
2019-12-18T03:07:03,42.805,6.029,-0.058,0.037,-0.002,108.0,115.0,104.0,13.3,1505.3,326.6,-0.7,1.8,2470.203,13.31,0.068,302.5
2019-12-18T03:10:03,42.805,6.029,-0.052,0.039,-0.02,110.0,112.0,104.0,13.3,1505.3,323.8,-0.8,1.9,2470.235,13.32,0.064,306.9
2019-12-18T03:13:03,42.805,6.029,-0.037,0.04,0.001,110.0,113.0,104.0,13.4,1505.3,327.2,-0.7,1.8,2470.23,13.32,0.054,317.2
2019-12-18T03:16:03,42.805,6.029,-0.068,0.038,0.011,108.0,112.0,104.0,13.4,1505.3,325.3,-0.6,1.8,2470.2,13.32,0.077,299.2
2019-12-18T03:19:03,42.805,6.029,-0.057,0.035,0.014,109.0,114.0,104.0,13.4,1505.3,328.4,-0.7,1.8,2470.188,13.32,0.066,301.6
2019-12-18T03:22:03,42.805,6.029,-0.063,0.041,-0.033,107.0,113.0,105.0,13.4,1505.3,326.4,-0.7,1.8,2470.214,13.32,0.075,303.1
2019-12-18T03:25:03,42.805,6.029,-0.067,0.019,-0.039,109.0,111.0,106.0,13.3,1505.3,327.3,-0.7,1.9,2470.201,13.32,0.069,285.8
2019-12-18T03:28:03,42.805,6.029,-0.048,0.038,-0.027,108.0,113.0,104.0,13.4,1505.3,323.6,-0.7,1.8,2470.225,13.33,0.061,308.4
2019-12-18T03:31:03,42.805,6.029,-0.064,0.011,0.015,108.0,113.0,105.0,13.4,1505.3,323.1,-0.7,1.8,2470.196,13.33,0.064,279.8
2019-12-18T03:34:03,42.805,6.029,-0.046,0.047,-0.003,108.0,112.0,103.0,13.4,1505.3,325.5,-0.7,1.8,2470.187,13.33,0.065,315.6
2019-12-18T03:37:03,42.805,6.029,-0.052,0.036,-0.022,106.0,112.0,103.0,13.4,1505.3,328.1,-0.7,1.8,2470.218,13.33,0.063,304.7
2019-12-18T03:40:03,42.805,6.029,-0.046,0.059,-0.017,107.0,112.0,103.0,13.4,1505.3,325.3,-0.8,1.8,2470.161,13.32,0.074,322.1
2019-12-18T03:43:03,42.805,6.029,-0.039,0.033,-0.007,107.0,112.0,103.0,13.4,1505.3,324.3,-0.7,1.8,2470.228,13.32,0.051,310.2
2019-12-18T03:46:03,42.805,6.029,-0.057,0.029,-0.047,106.0,112.0,103.0,13.4,1505.3,322.8,-0.7,1.9,2470.179,13.32,0.063,297.0
2019-12-18T03:49:03,42.805,6.029,-0.068,0.037,-0.034,108.0,112.0,103.0,13.3,1505.3,323.7,-0.7,1.8,2470.172,13.32,0.077,298.6
2019-12-18T03:52:03,42.805,6.029,-0.069,0.04,-0.021,107.0,112.0,104.0,13.4,1505.3,327.0,-0.7,1.8,2470.222,13.33,0.079,300.1
2019-12-18T03:55:03,42.805,6.029,-0.041,0.019,-0.003,107.0,114.0,104.0,13.4,1505.3,327.6,-0.7,1.8,2470.232,13.32,0.045,294.9
2019-12-18T03:58:03,42.805,6.029,-0.03,0.059,-0.023,108.0,113.0,104.0,13.4,1505.3,327.6,-0.8,1.9,2470.223,13.32,0.066,333.0
2019-12-18T04:04:03,42.805,6.029,-0.058,0.072,0.033,109.0,114.0,103.0,13.3,1505.2,325.3,-0.8,1.8,2470.249,13.3,0.092,321.1
2019-12-18T04:07:03,42.805,6.029,-0.053,0.037,-0.004,108.0,113.0,103.0,13.4,1505.3,325.0,-0.7,1.8,2470.199,13.31,0.064,304.9
2019-12-18T04:10:03,42.805,6.029,-0.044,0.069,-0.006,108.0,114.0,103.0,13.4,1505.3,327.1,-0.7,1.8,2470.219,13.32,0.081,327.5
2019-12-18T04:13:03,42.805,6.029,-0.07,0.046,-0.056,108.0,113.0,104.0,13.4,1505.3,323.0,-0.7,1.9,2470.18,13.32,0.083,303.3
2019-12-18T04:16:03,42.805,6.029,-0.056,0.052,-0.026,107.0,113.0,103.0,13.3,1505.3,327.3,-0.7,1.8,2470.191,13.32,0.076,312.9
2019-12-18T04:19:03,42.805,6.029,-0.027,0.056,0.005,106.0,113.0,103.0,13.4,1505.3,326.9,-0.7,1.8,2470.259,13.32,0.062,334.3
2019-12-18T04:22:03,42.805,6.029,-0.056,0.056,0.022,107.0,111.0,103.0,13.4,1505.3,327.6,-0.7,1.8,2470.191,13.32,0.079,315.0
2019-12-18T04:25:03,42.805,6.029,-0.046,0.045,-0.013,108.0,113.0,103.0,13.4,1505.3,326.5,-0.7,1.9,2470.194,13.32,0.064,314.4
2019-12-18T04:28:03,42.805,6.029,-0.039,0.057,0.003,107.0,115.0,102.0,13.4,1505.3,328.1,-0.7,1.8,2470.202,13.32,0.069,325.6
2019-12-18T04:31:03,42.805,6.029,-0.04,0.046,-0.003,107.0,114.0,103.0,13.3,1505.3,323.5,-0.7,1.8,2470.161,13.32,0.06,319.0
2019-12-18T04:34:03,42.805,6.029,-0.061,0.06,-0.012,107.0,113.0,103.0,13.4,1505.3,327.5,-0.7,1.9,2470.241,13.32,0.085,314.5
2019-12-18T04:37:03,42.805,6.029,-0.06,0.043,0.015,106.0,114.0,103.0,13.4,1505.3,327.4,-0.7,1.9,2470.203,13.32,0.073,305.6
2019-12-18T04:40:03,42.805,6.029,-0.055,0.032,-0.005,107.0,114.0,102.0,13.4,1505.3,325.7,-0.7,1.8,2470.178,13.32,0.063,300.2
2019-12-18T04:43:03,42.805,6.029,-0.055,0.071,-0.006,106.0,115.0,103.0,13.4,1505.3,327.5,-0.7,1.8,2470.174,13.32,0.089,322.2
2019-12-18T04:46:03,42.805,6.029,-0.061,0.046,-0.029,107.0,112.0,103.0,13.4,1505.3,323.4,-0.7,1.9,2470.178,13.32,0.076,307.0
2019-12-18T04:49:03,42.805,6.029,-0.045,0.045,0.05,107.0,114.0,102.0,13.3,1505.3,327.7,-0.7,1.8,2470.219,13.32,0.063,315.0
2019-12-18T04:52:03,42.805,6.029,-0.063,0.039,-0.001,106.0,113.0,103.0,13.3,1505.3,326.5,-0.7,1.8,2470.166,13.32,0.074,301.8
2019-12-18T04:55:03,42.805,6.029,-0.069,0.047,0.011,107.0,114.0,103.0,13.4,1505.3,325.8,-0.7,1.9,2470.178,13.32,0.083,304.3
2019-12-18T04:58:03,42.805,6.029,-0.068,0.048,-0.018,106.0,114.0,104.0,13.4,1505.3,323.7,-0.7,1.8,2470.168,13.32,0.083,305.2
2019-12-18T05:04:03,42.805,6.029,-0.049,0.055,0.022,106.0,115.0,102.0,13.3,1505.2,325.2,-0.8,1.8,2470.251,13.3,0.073,318.3
2019-12-18T05:07:03,42.805,6.029,-0.066,0.047,0.007,107.0,114.0,103.0,13.4,1505.3,325.3,-0.7,1.8,2470.182,13.31,0.081,305.5
2019-12-18T05:10:03,42.805,6.029,-0.044,0.062,0.015,106.0,114.0,101.0,13.4,1505.3,323.4,-0.7,1.8,2470.217,13.32,0.076,324.6
2019-12-18T05:13:03,42.805,6.029,-0.06,0.039,-0.019,107.0,111.0,102.0,13.4,1505.3,323.1,-0.7,1.8,2470.211,13.32,0.071,303.0
2019-12-18T05:16:03,42.805,6.029,-0.053,0.037,-0.015,106.0,113.0,103.0,13.4,1505.3,325.0,-0.8,1.8,2470.201,13.32,0.064,304.9
2019-12-18T05:19:03,42.805,6.029,-0.055,0.037,-0.043,107.0,114.0,102.0,13.4,1505.3,324.7,-0.7,1.8,2470.182,13.32,0.066,303.9
2019-12-18T05:22:03,42.805,6.029,-0.039,0.043,0.012,108.0,112.0,102.0,13.4,1505.3,325.2,-0.7,1.8,2470.154,13.32,0.058,317.8
2019-12-18T05:25:03,42.805,6.029,-0.037,0.031,0.021,108.0,114.0,103.0,13.4,1505.3,325.0,-0.7,1.9,2470.168,13.32,0.048,310.0
2019-12-18T05:28:03,42.805,6.029,-0.071,0.036,-0.022,107.0,112.0,102.0,13.4,1505.3,326.7,-0.7,1.8,2470.164,13.32,0.079,296.9
2019-12-18T05:31:03,42.805,6.029,-0.035,0.041,0.012,105.0,113.0,103.0,13.4,1505.3,324.3,-0.7,1.8,2470.207,13.32,0.053,319.5
2019-12-18T05:34:03,42.805,6.029,-0.072,0.035,-0.016,107.0,112.0,102.0,13.4,1505.3,327.6,-0.7,1.9,2470.193,13.32,0.08,295.9
2019-12-18T05:37:03,42.805,6.029,-0.074,0.035,-0.05,106.0,112.0,102.0,13.4,1505.3,324.0,-0.7,1.8,2470.219,13.32,0.081,295.3
2019-12-18T05:40:03,42.805,6.029,-0.042,0.042,-0.001,107.0,112.0,103.0,13.4,1505.3,324.7,-0.7,1.8,2470.201,13.32,0.059,315.0
2019-12-18T05:43:03,42.805,6.029,-0.045,0.035,-0.011,107.0,113.0,102.0,13.3,1505.3,326.0,-0.7,1.8,2470.194,13.32,0.057,307.9
2019-12-18T05:46:03,42.805,6.029,-0.036,0.065,-0.021,106.0,114.0,103.0,13.3,1505.3,326.8,-0.7,1.8,2470.14,13.32,0.074,331.0
2019-12-18T05:49:03,42.805,6.029,-0.047,0.037,-0.031,106.0,113.0,102.0,13.3,1505.3,326.1,-0.7,1.9,2470.176,13.32,0.059,308.2
2019-12-18T05:52:03,42.805,6.029,-0.014,0.038,0.005,106.0,112.0,103.0,13.3,1505.3,324.8,-0.7,1.9,2470.215,13.32,0.04,339.8
2019-12-18T05:55:03,42.805,6.029,-0.047,0.047,-0.014,107.0,113.0,103.0,13.4,1505.3,323.9,-0.7,1.8,2470.208,13.32,0.066,315.0
2019-12-18T05:58:03,42.805,6.029,-0.051,0.052,-0.076,107.0,112.0,101.0,13.4,1505.3,323.3,-0.7,1.8,2470.192,13.32,0.072,315.5
2019-12-18T06:04:03,42.805,6.029,-0.066,0.051,-0.007,108.0,113.0,103.0,13.3,1505.2,327.6,-0.7,1.8,2470.228,13.3,0.083,307.7
2019-12-18T06:07:03,42.805,6.029,-0.049,0.061,0.015,107.0,113.0,105.0,13.4,1505.3,324.6,-0.7,1.8,2470.183,13.31,0.078,321.2
2019-12-18T06:10:03,42.805,6.029,-0.054,0.045,-0.03,106.0,113.0,102.0,13.4,1505.3,325.5,-0.7,1.8,2470.185,13.32,0.07,309.8
2019-12-18T06:13:03,42.805,6.029,-0.032,0.035,0.002,108.0,113.0,102.0,13.3,1505.3,324.5,-0.7,1.8,2470.2,13.32,0.047,317.6
2019-12-18T06:16:03,42.805,6.029,-0.043,0.046,-0.021,108.0,111.0,103.0,13.4,1505.3,326.8,-0.7,1.8,2470.191,13.32,0.062,316.9
2019-12-18T06:19:03,42.805,6.029,-0.044,0.037,-0.006,107.0,111.0,103.0,13.4,1505.3,326.4,-0.7,1.9,2470.188,13.32,0.057,310.1
2019-12-18T06:22:03,42.805,6.029,-0.056,0.054,-0.027,106.0,112.0,103.0,13.4,1505.3,325.5,-0.7,1.8,2470.211,13.32,0.077,314.0
2019-12-18T06:25:03,42.805,6.029,-0.084,0.018,-0.033,106.0,112.0,105.0,13.3,1505.3,326.6,-0.7,1.9,2470.197,13.32,0.085,282.1
2019-12-18T06:28:03,42.805,6.029,-0.054,0.035,-0.025,107.0,111.0,103.0,13.4,1505.3,326.4,-0.7,1.8,2470.171,13.32,0.064,303.0
2019-12-18T06:31:03,42.805,6.029,-0.07,0.05,-0.03,107.0,113.0,103.0,13.4,1505.3,325.9,-0.7,1.8,2470.207,13.32,0.086,305.5
2019-12-18T06:34:03,42.805,6.029,-0.077,0.049,-0.03,107.0,115.0,103.0,13.4,1505.3,327.1,-0.7,1.8,2470.168,13.32,0.091,302.5
2019-12-18T06:37:03,42.805,6.029,-0.07,0.055,-0.004,107.0,112.0,103.0,13.4,1505.3,325.5,-0.7,1.9,2470.212,13.32,0.089,308.2
2019-12-18T06:40:03,42.805,6.029,-0.061,0.051,0.022,108.0,117.0,103.0,13.4,1505.3,326.5,-0.7,1.8,2470.189,13.32,0.079,309.9
2019-12-18T06:43:03,42.805,6.029,-0.055,0.055,-0.031,107.0,114.0,104.0,13.4,1505.3,325.7,-0.7,1.8,2470.198,13.32,0.077,315.0
2019-12-18T06:46:03,42.805,6.029,-0.059,0.023,-0.006,107.0,113.0,104.0,13.4,1505.3,327.0,-0.7,1.8,2470.212,13.32,0.063,291.3
2019-12-18T06:49:03,42.805,6.029,-0.04,0.037,-0.022,108.0,113.0,103.0,13.4,1505.3,328.4,-0.7,1.8,2470.183,13.32,0.054,312.8
2019-12-18T06:52:03,42.805,6.029,-0.05,0.04,-0.042,107.0,113.0,105.0,13.3,1505.3,326.0,-0.7,1.9,2470.153,13.32,0.064,308.7
2019-12-18T06:55:03,42.805,6.029,-0.059,0.044,0.001,107.0,112.0,102.0,13.4,1505.3,325.8,-0.7,1.9,2470.202,13.32,0.073,306.7
2019-12-18T06:58:03,42.805,6.029,-0.038,0.046,-0.006,108.0,113.0,103.0,13.3,1505.3,325.8,-0.7,1.8,2470.208,13.32,0.059,320.4
2019-12-18T07:04:03,42.805,6.029,-0.064,0.048,-0.019,106.0,112.0,103.0,13.3,1505.2,325.1,-0.8,1.8,2470.205,13.3,0.079,306.9
2019-12-18T07:07:03,42.805,6.029,-0.041,0.038,-0.016,107.0,112.0,102.0,13.4,1505.3,327.3,-0.8,1.8,2470.207,13.31,0.055,312.8
2019-12-18T07:10:03,42.805,6.029,-0.053,0.055,0.004,108.0,111.0,103.0,13.4,1505.3,327.3,-0.7,1.9,2470.249,13.32,0.076,316.1
2019-12-18T07:13:03,42.805,6.029,-0.068,0.043,-0.019,108.0,112.0,104.0,13.4,1505.3,324.5,-0.8,1.8,2470.196,13.32,0.08,302.3
2019-12-18T07:16:03,42.805,6.029,-0.087,0.046,-0.001,107.0,113.0,103.0,13.4,1505.3,327.6,-0.7,1.8,2470.211,13.32,0.098,297.9
2019-12-18T07:19:03,42.805,6.029,-0.077,0.023,-0.011,108.0,114.0,103.0,13.3,1505.3,327.5,-0.8,1.8,2470.207,13.32,0.08,286.6
2019-12-18T07:22:03,42.805,6.029,-0.027,0.026,-0.02,108.0,111.0,103.0,13.4,1505.3,325.7,-0.8,1.8,2470.247,13.32,0.037,313.9
2019-12-18T07:25:03,42.805,6.029,-0.074,0.031,-0.036,108.0,112.0,104.0,13.3,1505.3,327.5,-0.7,1.9,2470.251,13.32,0.08,292.7
2019-12-18T07:28:03,42.805,6.029,-0.076,0.051,-0.042,108.0,112.0,103.0,13.4,1505.3,328.3,-0.7,1.8,2470.247,13.32,0.091,303.9
2019-12-18T07:31:03,42.805,6.029,-0.055,0.043,0.002,108.0,115.0,103.0,13.3,1505.3,326.8,-0.7,1.8,2470.253,13.32,0.069,308.0
2019-12-18T07:34:03,42.805,6.029,-0.053,0.05,0.0,108.0,113.0,103.0,13.4,1505.3,327.0,-0.7,1.9,2470.225,13.32,0.072,313.3
2019-12-18T07:37:03,42.805,6.029,-0.08,0.057,-0.032,109.0,111.0,103.0,13.4,1505.3,325.7,-0.7,1.9,2470.22,13.32,0.098,305.5
2019-12-18T07:40:03,42.805,6.029,-0.05,0.039,-0.007,108.0,113.0,104.0,13.3,1505.3,327.1,-0.7,1.8,2470.232,13.32,0.063,308.0
2019-12-18T07:43:03,42.805,6.029,-0.056,0.026,-0.03,107.0,113.0,103.0,13.4,1505.3,325.0,-0.7,1.8,2470.247,13.32,0.061,294.9
2019-12-18T07:46:03,42.805,6.029,-0.056,0.052,-0.013,108.0,113.0,104.0,13.4,1505.3,326.0,-0.7,1.8,2470.219,13.32,0.076,312.9
2019-12-18T07:49:03,42.805,6.029,-0.031,0.038,-0.054,107.0,112.0,103.0,13.4,1505.3,326.5,-0.7,1.8,2470.229,13.32,0.049,320.8
2019-12-18T07:52:03,42.805,6.029,-0.071,0.037,-0.013,107.0,113.0,104.0,13.3,1505.3,325.6,-0.7,1.8,2470.246,13.32,0.08,297.5
2019-12-18T07:55:03,42.805,6.029,-0.069,0.038,-0.009,107.0,113.0,104.0,13.4,1505.3,327.9,-0.7,1.8,2470.266,13.32,0.078,298.8
2019-12-18T07:58:03,42.805,6.029,-0.029,0.038,0.007,107.0,112.0,103.0,13.3,1505.3,327.0,-0.7,1.8,2470.205,13.32,0.047,322.7
2019-12-18T08:04:03,42.805,6.029,-0.056,0.034,0.004,108.0,113.0,103.0,13.3,1505.2,325.3,-0.7,1.9,2470.313,13.3,0.065,301.3
2019-12-18T08:07:03,42.805,6.029,-0.049,0.05,-0.013,107.0,110.0,103.0,13.4,1505.3,327.2,-0.7,1.8,2470.229,13.31,0.07,315.6
2019-12-18T08:10:03,42.805,6.029,-0.072,0.036,-0.008,107.0,114.0,102.0,13.4,1505.3,323.5,-0.8,1.8,2470.281,13.32,0.08,296.6
2019-12-18T08:13:03,42.805,6.029,-0.07,0.036,-0.025,107.0,113.0,103.0,13.3,1505.3,325.6,-0.7,1.8,2470.254,13.32,0.078,297.2
2019-12-18T08:16:03,42.805,6.029,-0.048,0.041,-0.011,106.0,113.0,102.0,13.4,1505.3,324.7,-0.7,1.8,2470.271,13.32,0.063,310.5
2019-12-18T08:19:03,42.805,6.029,-0.065,0.027,-0.009,106.0,113.0,104.0,13.3,1505.3,326.0,-0.7,1.8,2470.288,13.32,0.07,292.6
2019-12-18T08:22:03,42.805,6.029,-0.05,0.026,-0.027,108.0,113.0,104.0,13.3,1505.3,323.1,-0.7,1.8,2470.286,13.32,0.056,297.5
2019-12-18T08:25:03,42.805,6.029,-0.064,0.027,-0.014,107.0,112.0,102.0,13.3,1505.3,324.2,-0.7,1.8,2470.266,13.32,0.069,292.9
2019-12-18T08:28:03,42.805,6.029,-0.057,0.062,-0.008,107.0,113.0,103.0,13.4,1505.3,326.0,-0.7,1.9,2470.302,13.32,0.084,317.4
2019-12-18T08:31:03,42.805,6.029,-0.05,0.046,-0.041,107.0,111.0,102.0,13.4,1505.3,325.8,-0.7,1.9,2470.308,13.32,0.067,312.6
2019-12-18T08:34:03,42.805,6.029,-0.082,0.037,-0.028,107.0,114.0,103.0,13.3,1505.3,325.4,-0.7,1.8,2470.259,13.32,0.089,294.3
2019-12-18T08:37:03,42.805,6.029,-0.072,0.038,-0.003,105.0,114.0,104.0,13.3,1505.3,327.2,-0.7,1.8,2470.29,13.32,0.081,297.8
2019-12-18T08:40:03,42.805,6.029,-0.046,0.062,0.025,107.0,114.0,102.0,13.3,1505.3,326.7,-0.7,1.8,2470.291,13.32,0.077,323.4
2019-12-18T08:43:03,42.805,6.029,-0.044,0.041,-0.009,105.0,112.0,102.0,13.3,1505.3,326.6,-0.7,1.8,2470.302,13.32,0.06,313.0
2019-12-18T08:46:03,42.805,6.029,-0.064,0.038,-0.018,107.0,113.0,102.0,13.4,1505.3,328.4,-0.7,1.9,2470.255,13.32,0.074,300.7
2019-12-18T08:49:03,42.805,6.029,-0.055,0.031,-0.006,107.0,111.0,102.0,13.4,1505.3,322.8,-0.7,1.8,2470.29,13.32,0.063,299.4
2019-12-18T08:52:03,42.805,6.029,-0.049,0.039,-0.02,107.0,111.0,103.0,13.3,1505.3,326.7,-0.7,1.8,2470.3,13.32,0.062,308.5
2019-12-18T08:55:03,42.805,6.029,-0.072,0.045,-0.001,107.0,111.0,103.0,13.4,1505.3,325.5,-0.7,1.8,2470.346,13.32,0.084,302.0
2019-12-18T08:58:03,42.805,6.029,-0.08,0.049,-0.043,105.0,112.0,103.0,13.4,1505.3,327.4,-0.7,1.8,2470.333,13.32,0.093,301.5
2019-12-18T09:04:03,42.805,6.029,-0.048,0.046,-0.007,107.0,111.0,103.0,13.4,1505.2,325.1,-0.8,1.8,2470.327,13.3,0.066,313.8
2019-12-18T09:07:03,42.805,6.029,-0.054,0.037,0.001,106.0,114.0,104.0,13.4,1505.3,324.7,-0.8,1.8,2470.3,13.31,0.065,304.4
2019-12-18T09:10:03,42.805,6.029,-0.062,0.037,-0.028,106.0,111.0,102.0,13.4,1505.3,327.4,-0.7,1.9,2470.335,13.32,0.072,300.8
2019-12-18T09:13:03,42.805,6.029,-0.074,0.021,-0.012,107.0,113.0,103.0,13.4,1505.3,326.5,-0.7,1.8,2470.348,13.32,0.076,285.8
2019-12-18T09:16:03,42.805,6.029,-0.058,0.039,-0.034,106.0,112.0,103.0,13.4,1505.3,326.9,-0.7,1.8,2470.346,13.32,0.069,303.9
2019-12-18T09:19:03,42.805,6.029,-0.054,0.022,-0.031,107.0,113.0,103.0,13.4,1505.3,325.4,-0.7,1.8,2470.293,13.32,0.058,292.2
2019-12-18T09:22:03,42.805,6.029,-0.049,0.053,-0.001,106.0,111.0,103.0,13.3,1505.3,324.5,-0.7,1.8,2470.346,13.32,0.072,317.2
2019-12-18T09:25:03,42.805,6.029,-0.06,0.039,0.017,107.0,114.0,102.0,13.4,1505.3,325.5,-0.7,1.8,2470.345,13.32,0.071,303.0
2019-12-18T09:28:03,42.805,6.029,-0.043,0.059,-0.01,107.0,112.0,103.0,13.4,1505.3,328.3,-0.7,1.8,2470.343,13.32,0.073,323.9
2019-12-18T09:31:03,42.805,6.029,-0.07,0.053,-0.015,107.0,112.0,102.0,13.4,1505.3,327.8,-0.7,1.8,2470.351,13.32,0.087,307.1
2019-12-18T09:34:03,42.805,6.029,-0.079,0.06,-0.042,107.0,113.0,103.0,13.4,1505.3,327.8,-0.7,1.8,2470.357,13.32,0.099,307.2
2019-12-18T09:37:03,42.805,6.029,-0.047,0.023,-0.002,106.0,111.0,102.0,13.4,1505.3,324.5,-0.7,1.8,2470.329,13.32,0.052,296.1
2019-12-18T09:40:03,42.805,6.029,-0.059,0.037,-0.015,106.0,111.0,102.0,13.4,1505.3,326.0,-0.7,1.8,2470.368,13.32,0.069,302.1
2019-12-18T09:43:03,42.805,6.029,-0.059,0.039,-0.002,107.0,113.0,102.0,13.4,1505.3,328.2,-0.7,1.8,2470.365,13.32,0.07,303.5
2019-12-18T09:46:03,42.805,6.029,-0.073,0.059,-0.044,105.0,110.0,104.0,13.4,1505.3,327.6,-0.7,1.9,2470.33,13.32,0.093,308.9
2019-12-18T09:49:03,42.805,6.029,-0.047,0.031,-0.002,106.0,110.0,102.0,13.4,1505.3,325.3,-0.7,1.8,2470.339,13.32,0.056,303.4
2019-12-18T09:52:03,42.805,6.029,-0.051,0.053,0.008,107.0,113.0,102.0,13.4,1505.3,327.6,-0.7,1.8,2470.327,13.32,0.073,316.1
2019-12-18T09:55:03,42.805,6.029,-0.041,0.051,-0.001,107.0,111.0,102.0,13.4,1505.3,327.2,-0.7,1.9,2470.348,13.32,0.065,321.2